Location: Mentone
(34.5413°N, 85.5351°W)
Time: 13:58:41
(UTC-06:00)

Okean O Rocket - Visible Passes

Search period start: 19 February 2018 00:00
Search period end: 01 March 2018 00:00
Orbit: 623 x 645 km, 98.1° (Epoch: 18 February)

Date Brightness Start Highest point End Pass type
(mag) Time Alt. Az. Time Alt. Az. Time Alt. Az.
19 Feb 4.1 04:02:52 10° N 04:03:28 14° N 04:03:28 14° N visible
20 Feb 3.8 04:24:39 10° N 04:25:32 15° N 04:25:32 15° N visible
21 Feb 3.6 04:46:42 10° NNW 04:47:37 15° NNW 04:47:37 15° NNW visible
22 Feb 4.3 03:31:34 10° NNE 03:32:14 14° NNE 03:32:14 14° NNE visible
22 Feb 3.7 05:09:14 10° NNW 05:09:42 11° NW 05:09:42 11° NW visible
23 Feb 3.7 03:52:59 10° NNE 03:54:19 19° NNE 03:54:19 19° NNE visible
24 Feb 3.3 04:14:38 10° N 04:16:24 23° N 04:16:24 23° N visible
25 Feb 3.2 04:36:33 10° N 04:38:29 22° NNW 04:38:29 22° NNW visible
26 Feb 4.2 03:21:53 10° NE 03:23:06 17° NE 03:23:06 17° NE visible
26 Feb 3.3 04:58:48 10° NNW 05:00:34 17° NW 05:00:34 17° NW visible
27 Feb 3.5 03:43:09 10° NNE 03:45:10 26° NNE 03:45:10 26° NNE visible
27 Feb 3.6 05:21:57 10° NW 05:22:39 11° NW 05:22:39 11° NW visible
28 Feb 2.8 04:04:41 10° N 04:07:16 34° N 04:07:16 34° N visible
